SCP
0 0 0 1 1 1 1 0 0 1 1 1 1 1 1 1 2 2 2 2 3 4 4 3 3 3 3 3 2 3 2 2 2 2 2 2 2 2 2 2 2 2 2 2 2 1 1 1 1
0 0 0 1 1 1 0 0 0 1 1 1 1 1 1 1 2 2 2 2 3 3 4 3 3 3 3 3 3 2 2 2 2 1 1 2 2 2 2 2 2 2 2 2 1 1 1 1 1
0 0 0 1 1 1 0 1 1 1 1 2 2 2 2 2 2 2 2 2 3 3 3 3 3 3 3 3 3 2 2 2 1 1 1 1 2 2 2 2 2 2 2 2 1 1 1 1 1
0 0 0 0 0 0 1 1 2 2 2 2 2 2 3 3 3 3 2 2 3 3 3 3 2 2 3 3 3 2 2 1 1 1 1 1 2 2 2 2 2 2 2 2 1 1 1 1 1
0 0 0 0 0 0 1 1 1 2 1 2 2 2 3 4 3 3 2 2 3 3 3 3 3 3 3 3 3 2 2 1 1 1 1 2 2 2 2 2 2 2 2 2 1 1 1 1 1
0 0 0 0 0 1 1 1 1 1 1 2 2 2 2 3 3 2 2 2 2 3 3 3 3 3 3 3 2 2 2 1 1 1 2 2 2 2 2 2 2 2 2 2 2 2 1 1 1
0 0 0 0 0 1 1 1 1 1 2 2 2 2 2 3 3 2 1 1 2 3 4 4 4 4 3 3 2 2 2 2 2 2 2 2 2 2 2 2 2 2 2 2 2 2 2 1 1
0 0 0 0 1 1 1 1 1 1 2 2 2 2 2 3 3 2 2 1 2 4 4 4 4 4 3 3 3 3 3 2 2 2 2 2 2 2 2 2 2 1 1 1 2 2 2 2 2
0 0 0 1 1 2 2 2 1 1 2 3 2 2 2 3 3 3 2 2 2 4 5 5 4 4 3 3 3 3 3 2 2 2 2 2 2 1 1 1 1 1 1 1 2 2 2 2 2
0 0 0 1 1 2 2 2 1 1 2 2 2 2 2 3 3 4 4 3 3 5 5 5 4 3 2 2 3 3 2 2 2 2 2 2 1 1 1 1 1 2 2 2 1 2 2 2 2
0 0 0 1 2 2 2 1 1 1 1 1 2 2 2 2 3 4 5 4 5 6 7 5 4 3 2 2 3 3 2 2 1 2 2 2 2 1 2 2 2 2 3 2 1 2 2 2 2
0 0 1 1 2 2 2 2 2 2 1 2 2 2 2 2 2 3 5 5 6 8 9 7 6 4 4 3 3 3 2 2 2 2 3 3 2 2 2 2 3 3 3 2 2 2 2 2 1
0 0 1 1 2 2 2 1 2 2 2 2 2 2 2 2 2 3 3 5 6 8 11 11 9 7 6 6 5 4 2 2 2 3 3 4 3 3 3 3 3 3 2 2 2 2 2 1 1
0 0 1 2 2 2 2 1 1 1 1 2 2 2 2 2 2 3 3 4 5 7 12 15 13 10 8 7 6 5 3 3 4 4 4 4 4 4 4 4 4 3 2 2 2 2 2 1 1
0 1 2 3 3 2 1 1 1 1 1 2 2 2 2 2 2 3 4 4 5 7 13 18 17 14 11 9 7 6 4 4 5 5 5 4 4 4 4 5 5 4 3 3 3 2 2 2 2
0 1 3 3 2 1 1 1 1 1 2 1 2 2 2 2 2 2 4 5 6 8 14 19 19 16 12 10 8 7 6 6 6 6 6 5 4 4 4 5 5 4 4 4 3 3 2 2 2
0 1 2 2 2 1 1 1 2 2 2 2 2 2 2 2 2 3 4 6 8 10 13 16 17 15 12 10 9 8 7 7 7 7 7 6 5 4 4 4 4 3 3 4 3 3 2 2 2
0 1 1 2 1 1 1 1 2 3 2 2 2 2 3 3 3 4 5 7 8 11 13 14 13 12 10 9 9 8 7 7 7 7 7 6 5 4 4 3 3 3 3 3 3 2 2 2 2
0 1 1 1 1 1 1 2 5 5 4 2 2 2 3 3 4 5 7 7 8 12 15 14 12 10 9 8 8 7 6 6 6 6 5 5 4 3 3 3 3 3 2 2 2 2 2 2 1
1 1 1 1 1 1 1 4 7 7 5 3 2 2 3 4 6 8 8 8 9 13 16 15 13 12 10 8 7 7 6 6 5 5 5 4 3 3 3 3 3 3 3 2 2 2 2 2 1
0 0 1 1 1 1 2 6 8 6 3 2 2 2 3 4 6 9 10 9 10 13 16 16 14 12 12 9 7 6 6 6 5 5 5 4 3 3 2 2 3 3 3 2 2 2 2 2 2
0 0 1 1 1 2 3 5 6 4 3 2 2 2 3 3 6 8 9 10 11 12 15 16 15 13 13 11 7 5 5 6 6 5 5 4 4 3 3 3 3 3 3 3 3 2 2 2 2
0 0 1 1 2 2 2 3 4 4 3 2 2 2 3 4 7 10 12 13 13 13 15 18 17 15 13 11 8 6 5 5 6 6 5 4 4 4 4 4 4 4 4 4 3 3 2 2 2
0 1 1 1 2 2 1 1 2 3 3 2 2 3 4 8 12 14 17 18 17 15 16 18 17 14 13 11 9 7 6 6 7 7 6 6 6 6 5 5 5 5 5 5 4 3 3 2 2
1 1 2 1 1 1 1 1 2 3 4 4 4 5 8 12 14 15 16 18 18 15 14 14 14 12 11 10 9 8 8 8 8 8 7 6 6 6 5 6 6 7 6 5 4 3 3 2 2
1 2 2 1 1 1 1 1 2 4 5 5 6 8 10 11 11 11 12 14 14 13 12 12 11 10 10 9 8 8 8 9 9 8 6 5 5 5 5 5 6 6 5 4 3 3 3 2 2
1 1 1 1 1 1 1 1 2 4 4 4 5 6 7 7 8 8 9 10 10 10 9 10 10 9 8 7 6 7 7 7 8 7 6 4 4 4 4 4 4 4 3 3 3 2 2 2 2
1 1 1 1 1 1 1 1 2 3 3 3 3 3 4 5 6 6 7 8 8 8 7 8 9 9 7 6 6 5 6 6 6 6 5 4 4 4 4 4 3 2 2 2 2 2 1 2 2
1 1 1 1 1 1 1 1 2 3 4 3 3 3 3 4 5 6 7 6 6 6 7 7 7 7 6 6 5 6 6 6 6 6 5 5 4 4 4 4 3 2 2 2 2 1 1 1 2
1 1 1 1 1 2 2 2 2 3 4 4 4 3 3 3 5 7 7 5 5 5 6 7 7 6 6 5 5 6 6 6 6 6 6 5 5 4 4 4 3 2 1 1 2 2 1 1 1
Wind_Speed
8 11 10 8 7 6 6 2 3 6 8 8 7 8 10 10 9 9 6 9 14 17 14 13 12 11 10 10 9 9 9 9 9 8 8 8 8 8 8 8 8 7 7 7 6 6 6 7 6
9 12 10 7 7 4 3 1 5 8 7 6 7 7 8 10 11 9 7 8 14 16 14 13 13 12 11 10 9 9 9 9 8 8 8 8 7 7 7 7 6 6 6 6 6 6 6 6 6
12 15 9 8 7 4 3 2 5 7 6 5 6 6 6 7 9 8 8 8 13 15 15 14 13 12 11 10 9 9 9 8 8 8 8 7 7 7 6 6 6 6 6 6 6 6 6 5 5
9 9 8 8 8 4 3 1 3 5 5 4 5 7 7 7 7 9 8 8 12 15 16 14 14 12 11 10 10 9 9 8 8 7 7 6 6 6 6 6 6 6 5 5 5 5 5 5 4
10 8 10 9 8 2 2 3 2 3 4 4 5 8 8 8 11 11 8 8 11 14 14 14 14 13 12 11 10 9 8 8 7 7 6 6 5 5 5 5 5 5 5 5 5 4 4 4 4
8 8 8 8 7 1 1 0 0 1 4 5 5 7 7 9 10 8 8 7 10 13 14 13 14 13 12 11 10 9 8 7 7 6 6 5 5 4 5 5 5 5 5 4 4 3 4 4 4
9 9 11 10 7 2 2 0 1 0 2 3 4 6 8 9 9 7 7 8 9 12 12 11 12 11 12 11 10 9 8 8 7 6 6 5 5 5 5 5 5 5 4 4 4 3 4 4 4
10 10 14 10 8 3 2 1 1 2 1 4 3 4 8 9 9 8 7 8 8 9 10 10 11 10 10 10 11 10 9 8 8 7 7 6 5 5 6 5 5 5 5 5 5 4 4 4 4
13 11 11 10 7 2 2 1 2 1 1 3 5 7 11 12 12 10 8 7 7 7 8 9 9 8 8 9 10 10 10 8 8 7 7 6 4 5 5 5 6 6 5 5 5 5 5 5 6
11 10 12 10 6 2 1 1 1 2 3 4 7 10 13 11 11 10 9 8 8 8 8 8 8 7 6 6 7 5 6 6 5 4 4 4 2 2 4 7 7 6 6 6 7 7 7 7 4
12 12 12 9 6 3 2 2 3 4 4 4 7 12 14 12 10 9 9 8 8 8 7 7 6 5 5 4 4 3 3 4 3 3 2 1 1 2 3 3 4 4 5 5 5 6 5 4 2
13 12 12 9 8 5 4 4 4 3 3 4 7 11 13 12 10 9 8 8 7 7 7 7 5 4 4 4 3 2 2 3 2 3 1 1 1 1 1 1 1 2 1 2 2 2 2 2 2
15 13 12 11 10 6 6 6 5 5 4 5 7 9 11 11 10 8 7 7 8 7 6 7 6 5 5 4 1 2 2 2 3 3 2 1 1 1 1 1 0 0 0 1 1 1 1 1 1
14 12 12 12 10 7 8 8 8 8 6 7 9 9 9 9 9 9 7 7 8 7 6 6 7 7 5 3 2 3 2 2 2 2 2 1 1 1 1 1 0 0 0 0 1 1 0 1 1
13 13 13 13 12 11 11 11 11 9 8 8 9 9 9 9 9 9 8 8 8 7 7 6 6 6 5 4 3 2 2 2 2 3 3 1 1 1 1 1 1 0 1 1 1 1 0 1 1
14 14 14 12 13 12 12 11 10 9 9 9 9 9 9 8 9 8 9 9 8 7 7 6 6 5 4 3 2 2 1 2 2 2 3 2 1 1 1 1 1 0 1 0 0 0 0 0 0
13 12 14 12 13 11 12 11 9 9 10 9 9 10 10 9 9 8 10 9 8 7 7 6 6 5 4 3 3 2 1 1 1 2 2 2 1 1 1 1 1 1 1 0 1 1 0 1 1
11 12 12 11 10 12 12 9 10 10 10 9 9 9 9 10 10 9 10 10 8 7 7 6 5 5 4 3 2 1 1 1 1 2 2 3 2 2 1 1 1 1 1 0 0 0 1 1 2
14 13 12 10 9 12 11 10 10 10 11 10 10 10 10 9 10 10 10 10 9 8 7 7 6 5 4 3 3 2 2 2 1 2 2 3 2 2 1 1 1 2 1 1 2 1 1 2 2
14 14 13 9 10 10 11 10 9 10 10 9 10 10 10 10 10 11 11 10 10 9 8 7 6 6 4 4 3 2 2 2 2 1 2 2 3 3 3 2 2 1 1 2 2 2 1 2 2
14 13 12 12 12 11 11 11 9 10 10 9 10 9 10 11 11 11 11 10 10 10 9 7 6 5 4 3 3 2 2 2 2 2 2 3 3 3 2 3 2 2 2 2 2 2 2 1 2
13 13 12 14 12 9 10 9 8 10 10 11 10 10 10 11 11 11 11 11 10 10 9 8 6 5 5 4 4 4 3 3 2 2 2 3 3 3 3 3 3 2 2 2 3 2 1 2 2
13 13 14 14 13 12 12 10 8 11 12 12 10 10 10 10 10 10 10 10 10 9 9 8 7 6 5 4 3 3 2 2 1 1 2 3 3 3 3 3 3 2 2 2 2 2 2 2 2
12 13 14 13 11 13 11 10 7 7 9 10 10 10 9 10 9 9 8 9 9 9 9 8 7 6 5 4 3 3 2 2 2 2 2 2 2 2 3 3 3 3 3 2 3 2 3 2 2
11 10 7 7 7 8 8 9 5 4 6 8 10 11 10 10 10 10 9 9 8 8 9 9 8 6 6 5 3 3 3 3 3 3 3 2 2 2 3 3 3 3 3 3 3 3 3 3 3
10 12 9 8 8 7 8 7 2 3 4 5 6 9 9 9 9 9 8 8 8 8 7 8 8 7 6 5 4 3 2 2 2 2 2 2 2 2 3 3 3 3 4 4 3 2 4 3 3
11 10 9 8 11 10 6 3 3 4 6 6 7 9 10 9 9 9 8 8 8 7 7 7 7 6 6 6 4 4 3 2 2 2 2 2 2 3 3 4 4 4 4 3 3 3 3 2 3
11 9 6 6 7 8 9 7 3 7 7 7 8 8 9 9 9 9 8 8 7 7 6 7 7 6 6 5 5 4 3 2 2 2 2 2 2 2 3 3 3 4 3 3 3 3 3 3 3
10 11 9 7 7 7 7 4 1 5 6 6 7 8 9 9 9 9 8 8 7 7 7 6 6 6 6 5 4 3 3 3 2 2 2 1 1 1 2 3 3 4 4 4 4 4 4 4 4
11 11 11 8 7 7 7 4 1 3 4 6 7 7 9 8 9 9 9 8 8 7 7 7 6 6 6 5 5 3 3 3 2 2 2 2 2 2 2 2 3 4 4 3 4 5 4 4 4
Wind_Direction
228 236 230 240 243 245 267 265 56 59 60 56 45 56 53 44 56 93 107 108 108 113 120 120 119 120 121 119 119 116 113 111 108 106 104 103 103 102 101 99 97 95 97 101 104 109 110 107 103
248 244 237 243 251 259 286 6 68 65 64 76 64 65 75 70 76 102 109 109 113 116 122 121 122 123 124 123 123 121 117 116 114 113 111 110 110 109 108 106 102 97 95 97 102 104 107 106 107
257 257 259 247 249 252 279 20 86 79 71 70 82 65 54 68 84 103 113 124 118 117 118 119 122 122 126 127 124 123 121 119 118 114 111 109 110 114 112 109 107 102 98 99 101 103 106 110 114
252 238 237 256 260 226 191 85 79 97 96 94 101 89 77 66 89 110 124 129 118 117 118 124 125 125 127 128 127 127 128 125 122 118 113 110 110 112 114 113 112 108 104 103 103 104 108 111 117
242 254 244 259 265 265 65 51 75 98 96 84 85 101 93 87 97 110 122 118 114 112 116 128 128 129 128 129 130 128 130 131 128 128 125 121 119 121 124 123 121 117 114 111 111 110 115 116 125
249 254 258 259 258 209 86 237 148 137 117 106 111 115 104 110 109 118 125 123 113 113 119 130 134 134 134 135 134 131 131 134 133 133 134 133 135 139 138 134 131 128 127 125 122 124 130 132 141
256 271 271 269 264 220 183 65 304 280 110 106 96 113 116 118 118 125 130 120 112 117 124 136 140 138 139 136 136 138 139 139 138 139 143 147 153 155 153 150 146 143 143 145 149 153 156 158 162
258 272 275 276 267 225 155 146 109 348 44 94 101 120 131 130 136 138 130 116 110 117 127 140 140 139 145 145 146 146 144 146 149 152 157 162 166 166 164 162 157 152 157 164 167 171 176 181 186
251 259 271 273 271 222 148 149 113 83 114 99 93 98 125 143 148 143 135 126 121 117 131 137 129 139 146 146 147 152 151 156 162 166 173 176 189 178 172 160 157 171 179 185 187 190 196 203 203
240 253 262 275 290 281 163 169 204 202 185 140 118 116 128 144 149 150 146 143 139 133 136 129 129 141 140 131 137 152 153 150 171 150 163 186 193 163 155 148 168 191 201 204 205 209 213 220 205
239 248 263 271 276 274 247 227 244 228 223 168 146 142 144 152 153 154 151 149 144 137 128 124 127 129 122 119 134 136 137 143 158 134 167 171 176 147 141 157 175 201 214 215 200 212 219 217 205
246 247 258 267 268 259 263 249 248 244 223 155 151 152 151 156 155 159 156 149 133 129 131 121 117 116 104 99 110 134 129 139 143 145 160 150 153 141 123 133 179 190 201 216 187 208 205 210 206
249 247 249 249 252 242 248 253 248 243 203 164 159 159 161 160 161 159 155 145 138 136 133 130 134 112 103 99 127 114 120 146 143 141 154 187 143 101 90 68 21 239 181 202 222 247 187 208 214
260 256 252 248 247 241 239 241 237 224 200 186 172 170 173 169 165 160 161 149 144 138 135 133 126 121 126 127 130 140 152 151 135 128 122 107 105 110 99 146 280 356 352 347 271 231 230 202 224
264 261 255 245 238 236 235 234 230 209 200 196 182 178 178 176 169 164 163 153 147 137 130 129 133 128 135 139 160 151 158 159 129 120 124 126 107 119 145 174 176 70 266 264 282 289 174 214 215
262 255 254 244 237 234 238 239 215 196 198 202 194 186 178 173 176 172 162 151 144 141 136 143 146 139 142 147 169 165 154 132 122 126 127 140 146 159 216 174 134 235 260 232 223 270 357 294 284
257 253 252 243 233 230 232 242 208 200 200 203 196 190 180 173 182 174 161 150 148 143 142 150 143 145 151 159 168 162 128 130 133 132 131 144 150 156 209 174 169 225 228 221 236 109 331 278 271
260 254 251 240 229 230 233 234 205 199 203 205 200 192 183 180 179 167 155 150 146 144 147 151 149 144 156 162 160 171 156 148 141 135 135 146 163 177 198 195 182 232 194 155 118 250 253 261 248
259 266 267 252 230 236 236 233 214 200 204 200 202 197 187 183 172 162 158 153 151 150 153 156 161 157 166 168 170 183 180 171 166 156 148 158 177 182 222 205 192 223 178 184 196 201 231 242 239
256 260 266 265 250 246 244 238 218 201 210 205 204 198 185 178 171 164 162 161 160 161 161 162 165 166 178 173 175 188 185 183 177 165 156 178 191 192 206 195 202 187 176 202 210 209 221 229 217
256 258 265 267 257 256 259 247 221 204 197 205 205 198 186 180 176 170 169 168 168 167 165 166 169 169 179 174 180 192 182 190 186 174 175 191 197 200 217 198 204 193 193 190 211 225 221 245 246
261 263 262 261 263 265 264 260 219 196 195 203 199 194 192 188 176 174 171 170 173 169 163 159 161 166 175 178 191 192 190 202 199 189 186 195 193 200 212 209 205 215 215 193 215 198 228 237 253
262 266 264 259 259 265 258 260 238 194 197 198 195 193 191 186 174 166 169 170 169 165 161 160 161 165 170 181 185 192 207 210 190 182 184 198 200 205 208 207 200 212 225 202 203 210 227 239 255
260 269 267 262 255 252 252 260 253 200 197 189 182 189 184 173 163 162 166 163 161 161 160 158 156 161 166 179 191 195 202 200 210 209 201 206 198 205 204 209 201 211 222 209 212 214 228 235 252
247 257 264 261 246 250 247 248 237 181 190 185 181 179 168 163 160 163 165 164 162 163 162 157 159 165 170 181 194 198 209 209 213 211 204 210 208 212 203 205 196 213 215 217 218 209 223 229 232
248 247 248 264 270 273 253 243 206 179 156 145 161 157 154 153 156 161 164 160 161 162 162 160 164 170 173 176 184 195 204 217 211 212 222 208 210 210 199 202 198 208 209 213 203 216 228 215 220
246 250 267 265 274 280 271 250 200 161 142 154 168 163 156 156 156 158 156 153 156 162 164 161 162 171 175 174 182 190 186 207 233 229 222 211 224 214 200 201 205 209 210 210 202 219 228 207 213
231 240 258 259 268 276 272 258 198 161 160 168 160 156 149 152 154 150 150 150 152 156 158 159 165 169 170 175 192 185 183 197 217 217 224 219 218 222 202 200 206 209 206 206 205 221 219 208 213
230 233 246 254 259 265 274 279 128 140 148 149 142 154 153 158 157 150 147 148 150 153 154 156 160 164 168 174 178 175 182 193 203 200 192 197 196 198 205 200 207 210 208 207 208 219 217 218 219
243 234 237 245 251 261 269 263 348 103 115 123 133 148 149 152 154 151 148 148 153 155 155 156 163 171 173 172 170 169 178 184 198 205 193 192 194 204 215 210 211 218 215 208 212 225 226 222 221